TimeHST,TemperatureF,Dew PointF,Humidity,Sea Level PressureIn,VisibilityMPH,Wind Direction,Wind SpeedMPH,Gust SpeedMPH,PrecipitationIn,Events,Conditions,WindDirDegrees,DateUTC
12:54 AM,73.0,66.9,81,29.93,10.0,East,6.9,-,N/A,,Clear,100,2013-11-09 10:54:00
1:54 AM,72.0,64.0,76,29.91,10.0,North,9.2,-,N/A,,Clear,360,2013-11-09 11:54:00
2:54 AM,73.9,70.0,87,29.91,10.0,NE,8.1,-,N/A,,Clear,40,2013-11-09 12:54:00
3:50 AM,73.4,66.2,78,29.88,10.0,NE,4.6,-,N/A,,Mostly Cloudy,40,2013-11-09 13:50:00
3:54 AM,73.0,66.0,79,29.90,10.0,NE,4.6,-,N/A,,Mostly Cloudy,40,2013-11-09 13:54:00
4:38 AM,73.4,69.8,88,29.89,7.0,ENE,4.6,-,0.01,Rain,Light Rain,70,2013-11-09 14:38:00
4:54 AM,73.0,70.0,90,29.90,10.0,North,4.6,-,0.01,,Overcast,10,2013-11-09 14:54:00
5:54 AM,72.0,69.1,91,29.92,10.0,ENE,4.6,-,N/A,,Overcast,60,2013-11-09 15:54:00
6:54 AM,73.0,69.1,87,29.94,10.0,NE,6.9,-,N/A,,Mostly Cloudy,40,2013-11-09 16:54:00
7:54 AM,75.0,69.1,82,29.94,10.0,NE,5.8,-,N/A,,Overcast,40,2013-11-09 17:54:00
8:17 AM,75.2,69.8,83,29.93,10.0,NNE,5.8,-,0.00,Rain,Light Rain,30,2013-11-09 18:17:00
8:54 AM,75.9,71.1,85,29.95,10.0,NW,6.9,-,0.00,,Mostly Cloudy,320,2013-11-09 18:54:00
9:54 AM,80.1,70.0,71,29.95,10.0,North,6.9,-,N/A,,Scattered Clouds,350,2013-11-09 19:54:00
10:31 AM,78.8,71.6,78,29.93,10.0,NNE,13.8,-,N/A,,Mostly Cloudy,20,2013-11-09 20:31:00
10:54 AM,80.1,71.1,74,29.94,10.0,NNE,13.8,-,N/A,,Mostly Cloudy,30,2013-11-09 20:54:00
11:54 AM,81.0,70.0,69,29.90,10.0,NNE,16.1,20.7,N/A,,Mostly Cloudy,30,2013-11-09 21:54:00
12:52 PM,77.0,69.8,78,29.86,10.0,NE,21.9,32.2,0.00,,Mostly Cloudy,50,2013-11-09 22:52:00
12:54 PM,77.0,69.1,76,29.88,10.0,NE,23.0,32.2,0.00,,Mostly Cloudy,50,2013-11-09 22:54:00
1:08 PM,78.8,69.8,74,29.87,10.0,NE,17.3,32.2,0.00,Rain,Light Rain,50,2013-11-09 23:08:00
1:19 PM,75.2,68.0,78,29.87,10.0,NE,16.1,27.6,0.00,,Overcast,50,2013-11-09 23:19:00
1:54 PM,73.0,69.1,87,29.88,5.0,NE,18.4,23.0,0.03,Rain,Light Rain,50,2013-11-09 23:54:00
2:54 PM,73.0,68.0,84,29.88,10.0,NE,9.2,-,0.07,Rain,Light Rain,50,2013-11-10 00:54:00
3:54 PM,78.1,66.9,68,29.85,10.0,ENE,8.1,-,0.00,,Scattered Clouds,70,2013-11-10 01:54:00
4:54 PM,75.9,66.0,71,29.86,10.0,NNW,11.5,-,N/A,,Scattered Clouds,340,2013-11-10 02:54:00
5:54 PM,77.0,66.9,71,29.87,10.0,NNE,12.7,-,N/A,,Scattered Clouds,20,2013-11-10 03:54:00
6:54 PM,73.9,66.0,76,29.89,10.0,NE,6.9,-,N/A,,Overcast,50,2013-11-10 04:54:00
7:54 PM,75.0,68.0,79,29.91,10.0,NE,13.8,-,N/A,,Overcast,40,2013-11-10 05:54:00
8:54 PM,73.0,66.9,81,29.91,10.0,East,5.8,-,N/A,,Scattered Clouds,90,2013-11-10 06:54:00
9:54 PM,73.9,66.9,79,29.92,10.0,North,6.9,-,N/A,,Overcast,360,2013-11-10 07:54:00
10:54 PM,75.0,66.9,76,29.91,10.0,NE,12.7,-,N/A,,Scattered Clouds,40,2013-11-10 08:54:00
11:25 PM,73.4,69.8,88,29.89,10.0,NNE,16.1,-,N/A,,Overcast,30,2013-11-10 09:25:00
11:32 PM,73.4,69.8,88,29.89,10.0,NE,12.7,24.2,N/A,,Overcast,50,2013-11-10 09:32:00
11:42 PM,71.6,68.0,88,29.89,10.0,ENE,15.0,24.2,N/A,,Overcast,60,2013-11-10 09:42:00
11:54 PM,71.1,66.9,87,29.91,10.0,ENE,11.5,26.5,N/A,,Overcast,60,2013-11-10 09:54:00